When you browse on this site, cookies collect data to enhance your experience and personalize the content and advertising you see.
Visit our Privacy Policy to learn more. By continuing to use the site, you agree to this use of cookies and data.
  • In Hungary
  • List of Countries
  • For 7 days
  • Water Temperature
  • Weather Map
  • News
  • Weather Widgets
  • user-avatar
    Login

    Hourly Weather Kaltay

    Today, 23 January, Thursday

    Time Temperature Precipitation Wind Pressure Humidity
    00:00 -11°C° 0 mm 4 mps 751 mmHg 93%
    01:00 -11°C° 0.1 mm 4 mps 751 mmHg 93%
    02:00 -11°C° 0.1 mm 4 mps 751 mmHg 92%
    03:00 -11°C° 0.1 mm 4 mps 750 mmHg 92%
    04:00 -12°C° 0 mm 4 mps 751 mmHg 92%
    05:00 -12°C° 0 mm 4 mps 751 mmHg 92%
    06:00 -14°C° 0 mm 4 mps 751 mmHg 92%
    07:00 -14°C° 0 mm 4 mps 751 mmHg 92%
    08:00 -14°C° 0 mm 4 mps 751 mmHg 92%
    09:00 -12°C° 0 mm 4 mps 750 mmHg 91%
    10:00 -13°C° 0 mm 5 mps 750 mmHg 90%
    11:00 -12°C° 0 mm 5 mps 750 mmHg 89%
    12:00 -11°C° 0 mm 6 mps 750 mmHg 89%
    13:00 -10°C° 0.2 mm 6 mps 749 mmHg 89%
    14:00 -10°C° 0.2 mm 6 mps 749 mmHg 90%
    15:00 -10°C° 0.2 mm 6 mps 748 mmHg 90%
    16:00 -10°C° 0.2 mm 6 mps 748 mmHg 91%
    17:00 -10°C° 0.2 mm 6 mps 748 mmHg 91%
    18:00 -9°C° 0.2 mm 6 mps 748 mmHg 92%
    19:00 -9°C° 0.2 mm 6 mps 747 mmHg 92%
    20:00 -8°C° 0.2 mm 6 mps 747 mmHg 92%
    21:00 -8°C° 0.2 mm 6 mps 746 mmHg 92%
    22:00 -6°C° 0.2 mm 6 mps 746 mmHg 92%
    23:00 -6°C° 0.2 mm 6 mps 745 mmHg 92%

    Tomorrow, 24 January, Friday

    Time Temperature Precipitation Wind Pressure Humidity
    00:00 -6°C° 0.2 mm 6 mps 745 mmHg 91%
    01:00 -6°C° 0.3 mm 6 mps 745 mmHg 92%
    02:00 -6°C° 0.3 mm 6 mps 745 mmHg 92%
    03:00 -5°C° 0.3 mm 6 mps 745 mmHg 93%
    04:00 -6°C° 0.2 mm 6 mps 745 mmHg 92%
    05:00 -6°C° 0.2 mm 6 mps 745 mmHg 91%
    06:00 -6°C° 0.2 mm 6 mps 745 mmHg 90%
    07:00 -6°C° 0.1 mm 6 mps 745 mmHg 91%
    08:00 -6°C° 0.1 mm 6 mps 745 mmHg 91%
    09:00 -6°C° 0.1 mm 6 mps 745 mmHg 92%
    10:00 -5°C° 0.2 mm 6 mps 744 mmHg 92%
    11:00 -5°C° 0.2 mm 6 mps 744 mmHg 92%
    12:00 -4°C° 0.2 mm 6 mps 744 mmHg 92%
    13:00 -4°C° 0.2 mm 6 mps 744 mmHg 92%
    14:00 -4°C° 0.2 mm 6 mps 743 mmHg 93%
    15:00 -4°C° 0.2 mm 6 mps 743 mmHg 94%
    16:00 -4°C° 0.4 mm 6 mps 743 mmHg 93%
    17:00 -4°C° 0.4 mm 6 mps 743 mmHg 93%
    18:00 -5°C° 0.4 mm 6 mps 742 mmHg 93%
    19:00 -4°C° 0.1 mm 6 mps 742 mmHg 91%
    20:00 -4°C° 0.1 mm 6 mps 742 mmHg 89%
    21:00 -4°C° 0.1 mm 6 mps 742 mmHg 87%
    22:00 -4°C° 0 mm 6 mps 742 mmHg 87%
    23:00 -4°C° 0 mm 6 mps 743 mmHg 88%

    Day after tomorrow, 25 January, Saturday

    Time Temperature Precipitation Wind Pressure Humidity
    00:00 -4°C° 0 mm 5 mps 743 mmHg 89%
    01:00 -4°C° 0 mm 5 mps 743 mmHg 89%
    02:00 -4°C° 0 mm 5 mps 744 mmHg 90%
    03:00 -3°C° 0 mm 4 mps 744 mmHg 91%
    04:00 -3°C° 0.1 mm 4 mps 744 mmHg 92%
    05:00 -3°C° 0.1 mm 4 mps 744 mmHg 94%
    06:00 -4°C° 0.1 mm 4 mps 744 mmHg 95%
    07:00 -5°C° 0.4 mm 5 mps 743 mmHg 95%
    08:00 -5°C° 0.4 mm 5 mps 743 mmHg 95%
    09:00 -5°C° 0.4 mm 5 mps 743 mmHg 95%
    10:00 -5°C° 0.4 mm 5 mps 743 mmHg 95%
    11:00 -5°C° 0.4 mm 5 mps 743 mmHg 95%
    12:00 -4°C° 0.4 mm 4 mps 742 mmHg 95%
    13:00 -4°C° 0.5 mm 4 mps 742 mmHg 95%
    14:00 -4°C° 0.5 mm 4 mps 743 mmHg 96%
    15:00 -4°C° 0.5 mm 4 mps 743 mmHg 96%
    16:00 -4°C° 0.3 mm 4 mps 743 mmHg 96%
    17:00 -4°C° 0.3 mm 4 mps 743 mmHg 95%
    18:00 -4°C° 0.3 mm 3 mps 744 mmHg 95%
    19:00 -5°C° 0.2 mm 3 mps 744 mmHg 95%
    20:00 -5°C° 0.2 mm 3 mps 745 mmHg 95%
    21:00 -5°C° 0.2 mm 3 mps 745 mmHg 95%
    22:00 -6°C° 0.1 mm 3 mps 746 mmHg 94%
    23:00 -6°C° 0.1 mm 3 mps 746 mmHg 94%

    26 January, Sunday

    Time Temperature Precipitation Wind Pressure Humidity
    00:00 -7°C° 0.1 mm 3 mps 747 mmHg 93%
    01:00 -8°C° 0 mm 3 mps 747 mmHg 93%
    02:00 -9°C° 0 mm 3 mps 748 mmHg 94%
    03:00 -12°C° 0 mm 3 mps 749 mmHg 94%
    04:00 -12°C° 0 mm 3 mps 749 mmHg 94%
    05:00 -13°C° 0 mm 3 mps 749 mmHg 94%
    06:00 -14°C° 0 mm 3 mps 750 mmHg 94%
    07:00 -14°C° 0 mm 3 mps 750 mmHg 94%
    08:00 -15°C° 0 mm 3 mps 750 mmHg 94%
    09:00 -15°C° 0 mm 3 mps 750 mmHg 94%
    10:00 -14°C° 0 mm 3 mps 751 mmHg 92%
    11:00 -14°C° 0 mm 4 mps 751 mmHg 90%
    12:00 -12°C° 0 mm 4 mps 751 mmHg 88%
    13:00 -12°C° 0 mm 4 mps 751 mmHg 87%
    14:00 -12°C° 0 mm 4 mps 751 mmHg 86%
    15:00 -12°C° 0 mm 4 mps 751 mmHg 85%
    16:00 -12°C° 0 mm 4 mps 752 mmHg 86%
    17:00 -14°C° 0 mm 4 mps 752 mmHg 87%
    18:00 -14°C° 0 mm 4 mps 752 mmHg 88%
    19:00 -15°C° 0 mm 4 mps 752 mmHg 88%
    20:00 -15°C° 0 mm 4 mps 752 mmHg 88%
    21:00 -15°C° 0 mm 4 mps 752 mmHg 88%
    22:00 -15°C° 0 mm 4 mps 752 mmHg 87%
    23:00 -15°C° 0 mm 5 mps 752 mmHg 87%

    27 January, Monday

    Time Temperature Precipitation Wind Pressure Humidity
    00:00 -14°C° 0 mm 5 mps 751 mmHg 86%
    01:00 -14°C° 0 mm 5 mps 751 mmHg 86%
    02:00 -14°C° 0 mm 5 mps 751 mmHg 85%
    03:00 -14°C° 0 mm 5 mps 751 mmHg 85%
    04:00 -14°C° 0 mm 5 mps 751 mmHg 83%
    05:00 -14°C° 0 mm 5 mps 750 mmHg 82%
    06:00 -14°C° 0 mm 5 mps 750 mmHg 81%
    07:00 -14°C° 0 mm 5 mps 749 mmHg 79%
    08:00 -13°C° 0 mm 5 mps 749 mmHg 78%
    09:00 -12°C° 0 mm 6 mps 748 mmHg 77%
    10:00 -11°C° 0 mm 6 mps 748 mmHg 76%
    11:00 -11°C° 0 mm 6 mps 747 mmHg 76%
    12:00 -11°C° 0 mm 7 mps 747 mmHg 75%
    13:00 -11°C° 0 mm 7 mps 746 mmHg 78%
    14:00 -11°C° 0 mm 7 mps 746 mmHg 82%
    15:00 -11°C° 0 mm 7 mps 745 mmHg 86%
    16:00 -9°C° 0.2 mm 7 mps 745 mmHg 87%
    17:00 -9°C° 0.2 mm 7 mps 744 mmHg 88%
    18:00 -9°C° 0.2 mm 7 mps 744 mmHg 89%
    19:00 -8°C° 0.2 mm 7 mps 744 mmHg 90%
    20:00 -8°C° 0.2 mm 7 mps 743 mmHg 91%
    21:00 -7°C° 0.2 mm 7 mps 743 mmHg 91%
    22:00 -7°C° 0.1 mm 7 mps 743 mmHg 90%
    23:00 -6°C° 0.1 mm 6 mps 743 mmHg 89%

    28 January, Tuesday

    Time Temperature Precipitation Wind Pressure Humidity
    00:00 -6°C° 0.1 mm 6 mps 743 mmHg 88%
    01:00 -8°C° 0.1 mm 6 mps 744 mmHg 87%
    02:00 -9°C° 0.1 mm 6 mps 744 mmHg 85%
    03:00 -11°C° 0.1 mm 7 mps 745 mmHg 84%
    04:00 -11°C° 0 mm 6 mps 745 mmHg 85%
    05:00 -12°C° 0 mm 6 mps 746 mmHg 87%
    06:00 -12°C° 0 mm 6 mps 747 mmHg 88%
    07:00 -13°C° 0 mm 5 mps 748 mmHg 89%
    08:00 -14°C° 0 mm 5 mps 749 mmHg 90%
    09:00 -15°C° 0 mm 4 mps 750 mmHg 91%
    10:00 -15°C° 0 mm 4 mps 750 mmHg 90%
    11:00 -14°C° 0 mm 4 mps 751 mmHg 90%
    12:00 -14°C° 0 mm 4 mps 751 mmHg 90%
    13:00 -14°C° 0 mm 4 mps 751 mmHg 90%
    14:00 -13°C° 0 mm 3 mps 752 mmHg 91%
    15:00 -13°C° 0 mm 3 mps 752 mmHg 91%
    16:00 -13°C° 0 mm 3 mps 752 mmHg 92%
    17:00 -14°C° 0 mm 3 mps 752 mmHg 93%
    18:00 -14°C° 0 mm 3 mps 752 mmHg 94%
    19:00 -14°C° 0 mm 2 mps 753 mmHg 94%
    20:00 -14°C° 0 mm 2 mps 753 mmHg 95%
    21:00 -15°C° 0 mm 2 mps 753 mmHg 95%
    22:00 -15°C° 0 mm 2 mps 753 mmHg 96%
    23:00 -16°C° 0 mm 2 mps 754 mmHg 96%
    Show more